Temperature
22 22 21 22 21 21 21 20 20 21 20 19 19 19 19 18 18 17 17 17 16 15 15 15 15 15 15 15 15 15 16 16 16 16 16 16 17 18 17 16 17 17 17
22 22 22 22 22 21 21 21 20 21 20 19 19 19 18 18 18 17 16 16 16 15 15 15 14 14 14 14 14 14 15 16 17 17 16 17 18 18 18 17 16 17 17
23 22 23 23 22 22 21 21 21 21 20 20 19 18 18 18 18 17 17 16 15 15 15 15 14 15 14 14 14 14 14 15 16 16 16 17 18 19 18 17 16 17 17
23 23 23 23 22 22 21 21 22 21 21 20 19 19 19 19 18 17 17 16 15 15 15 14 13 14 14 13 13 13 13 14 15 16 16 16 16 17 17 17 16 17 17
22 23 22 23 22 22 21 21 21 21 21 21 20 19 19 19 18 17 16 15 15 14 14 14 13 13 13 13 13 13 13 13 14 15 16 16 16 15 15 16 17 17 17
22 21 22 22 21 20 20 20 20 21 21 21 20 20 19 19 18 17 16 16 15 15 14 13 13 12 12 12 12 13 13 13 14 14 14 15 16 16 16 16 17 18 18
18 17 18 18 18 18 19 19 19 20 20 20 20 19 19 19 18 16 16 16 15 15 14 14 13 13 12 12 12 12 13 13 13 13 13 14 14 16 17 17 17 17 17
17 16 15 15 15 15 15 16 16 17 18 19 19 19 19 18 17 16 17 16 16 15 15 15 14 13 12 12 13 12 13 13 13 13 14 14 14 14 15 17 17 16 15
15 15 14 14 14 14 13 13 13 14 15 16 16 17 18 18 17 16 17 16 16 16 15 15 14 14 13 12 12 13 13 13 12 13 13 14 14 15 15 16 16 15 15
15 14 14 13 12 12 12 12 12 12 13 13 14 14 15 15 15 15 15 15 15 15 15 15 14 12 12 12 13 13 13 12 12 13 14 14 14 15 15 15 15 15 15
14 14 13 13 12 12 12 11 11 12 13 13 12 13 13 13 14 14 14 14 14 15 14 14 13 12 12 12 13 12 13 13 13 13 13 13 13 14 14 14 14 14 14
13 13 13 12 12 11 11 10 10 10 11 12 13 13 12 12 13 13 13 14 13 13 13 13 13 13 12 12 12 12 12 13 13 13 13 13 13 13 13 13 14 14 14
12 12 12 12 11 10 10 9 10 11 12 11 11 12 12 11 11 12 13 13 13 13 13 13 13 13 12 12 12 12 12 13 13 13 12 13 12 12 12 12 13 13 13
10 10 10 10 11 11 11 10 9 10 11 11 10 9 11 11 10 11 12 12 12 13 13 13 13 13 13 12 12 12 12 13 13 13 13 13 13 13 12 12 12 12 12
9 9 9 10 10 10 11 11 11 10 10 10 10 8 9 11 9 10 11 12 12 13 13 13 13 13 13 13 13 12 12 12 13 13 13 13 13 13 13 12 12 11 11
10 10 10 11 11 11 11 10 10 10 10 10 10 10 10 8 9 10 11 11 11 12 12 12 12 13 13 13 13 12 12 12 12 13 13 13 13 12 12 12 12 11 11
12 12 12 12 12 11 11 11 11 11 11 11 11 11 11 10 10 10 10 10 10 11 12 12 12 12 12 13 12 12 11 12 12 12 12 12 13 12 12 12 12 11 11
12 12 11 11 11 11 11 10 10 11 11 11 11 11 11 11 10 10 10 10 10 10 11 11 11 12 12 12 12 12 11 11 11 12 12 12 12 12 12 11 12 12 12
11 11 11 10 10 10 10 10 10 10 10 10 10 10 10 10 10 10 10 9 9 9 10 11 11 11 11 12 12 11 11 11 11 11 11 11 12 11 11 12 12 12 12
10 10 10 9 9 9 9 9 9 9 9 9 9 9 9 9 9 10 9 9 9 9 9 9 10 10 10 11 12 11 11 11 11 11 11 11 11 12 11 11 12 12 12
10 9 9 9 9 8 8 7 7 7 8 8 8 8 8 9 9 9 9 9 9 9 9 9 9 10 9 10 11 11 11 12 11 11 11 11 11 11 11 11 11 11 11
9 9 9 8 8 7 6 6 5 6 6 6 7 7 7 8 9 9 9 9 9 9 9 9 8 8 9 8 9 10 11 11 12 12 11 11 11 11 11 10 11 11 11
9 9 8 7 6 5 5 4 4 4 4 5 5 5 6 7 8 8 8 8 9 9 10 10 8 8 8 8 8 9 10 10 11 12 10 10 10 10 10 10 10 10 11
8 8 8 6 4 4 4 3 4 4 4 4 5 5 5 6 6 7 8 9 10 10 10 9 8 8 7 8 8 9 10 10 11 11 10 10 9 9 9 9 9 10 10
8 8 7 5 4 3 3 4 4 3 3 4 4 4 4 4 5 6 7 8 9 9 10 8 8 7 7 8 8 8 9 9 10 10 9 9 9 9 9 9 9 9 9
7 7 6 4 3 3 3 3 4 3 3 3 3 3 4 4 4 5 6 7 8 8 8 8 8 7 7 8 8 8 9 10 10 9 10 10 10 9 10 10 9 9 10
Wind_Speed
9 9 8 7 8 7 7 5 4 4 3 3 2 2 3 3 3 2 2 3 3 2 4 7 8 9 10 11 12 13 15 15 15 14 15 18 19 19 15 15 16 16 14
9 8 7 7 8 8 8 6 5 6 4 3 2 2 3 4 3 3 3 4 4 4 5 6 8 10 11 13 14 14 14 15 15 14 14 15 15 18 17 15 15 15 12
9 8 8 9 8 8 8 7 6 6 6 4 4 5 6 7 7 7 7 4 5 6 6 7 9 10 11 12 12 13 15 15 15 15 14 12 13 12 12 13 13 13 11
8 8 9 9 8 8 8 8 8 8 7 7 6 6 7 7 7 7 7 6 5 6 8 8 9 9 10 12 11 10 12 15 15 15 17 19 18 16 10 9 10 11 11
9 8 9 7 4 4 6 8 9 10 9 9 9 8 8 8 7 7 6 7 6 6 7 7 9 10 11 11 13 13 12 13 16 16 16 16 15 17 16 14 12 12 12
2 1 6 5 6 6 7 8 8 10 10 10 10 9 8 9 9 7 7 7 7 6 5 7 9 10 11 12 13 13 15 15 15 15 14 15 14 14 13 16 17 16 11
15 18 20 16 12 12 12 11 10 11 10 10 10 9 9 8 9 8 7 6 7 7 6 6 8 10 12 13 13 12 13 15 16 16 14 15 15 16 15 14 14 13 9
17 18 15 15 16 17 18 17 15 13 11 10 9 8 8 7 8 8 7 6 6 6 6 8 9 11 12 13 13 12 13 14 15 17 17 13 14 14 16 16 14 10 8
16 17 17 19 19 18 18 19 19 17 14 10 6 6 7 8 9 9 8 7 6 6 6 8 10 11 13 13 13 12 14 15 15 16 16 13 12 11 13 14 12 10 10
15 15 15 17 17 17 17 16 17 18 17 17 14 10 9 9 10 11 11 10 8 7 8 9 11 13 13 14 11 12 14 12 12 12 14 13 10 10 11 11 10 11 10
15 15 15 15 15 14 14 14 15 16 16 17 16 15 15 14 12 12 13 12 11 10 10 10 11 13 13 12 11 12 11 9 8 9 8 7 7 8 10 10 9 10 10
15 14 14 14 13 13 12 12 13 14 15 15 14 14 14 16 15 13 14 14 13 13 12 11 10 12 12 11 11 10 8 6 6 5 4 4 4 6 6 7 10 9 10
17 16 16 17 16 13 12 10 9 10 11 14 15 12 12 15 16 15 15 15 15 15 15 13 11 11 10 11 10 9 7 4 5 5 3 3 5 4 5 7 4 3 8
17 17 16 14 12 10 8 8 8 6 5 7 13 13 9 13 17 17 14 15 16 17 17 14 12 10 10 10 10 8 8 5 5 4 5 5 4 3 7 9 9 8 10
14 14 14 14 12 12 12 12 11 11 11 10 10 13 12 10 14 17 16 15 13 15 17 16 13 11 10 8 7 7 8 5 2 2 4 5 5 6 9 9 10 10 9
17 17 16 18 15 14 14 15 13 13 14 15 16 15 13 13 14 14 14 15 12 10 14 17 15 12 10 8 4 7 7 3 2 2 0 4 8 8 10 11 11 9 9
20 22 23 23 23 22 20 21 17 16 16 14 15 13 10 13 14 13 13 16 15 12 11 16 16 14 12 13 11 8 6 4 3 4 1 6 8 10 11 11 11 11 12
24 24 24 25 25 25 25 24 24 23 22 21 20 21 18 19 20 15 14 15 14 12 11 13 16 16 14 16 14 10 10 8 5 4 4 7 8 8 10 10 10 11 9
25 25 26 27 27 26 26 25 24 23 23 23 22 23 23 21 20 19 16 16 14 14 12 10 12 14 14 17 17 13 13 11 9 7 6 6 7 4 4 8 11 11 9
26 27 28 28 26 25 25 25 24 24 24 24 22 21 22 20 20 17 16 15 15 16 15 11 8 9 13 17 19 16 13 11 10 9 6 5 8 5 1 6 9 11 10
29 29 29 25 23 21 20 22 23 23 24 22 21 21 22 20 18 16 15 15 16 17 16 15 10 3 7 10 19 18 14 11 11 11 10 7 9 7 3 4 8 10 11
30 29 25 22 20 19 19 22 23 20 20 20 18 21 22 20 18 16 15 15 16 17 16 15 12 7 2 8 10 17 16 9 10 11 10 8 10 10 7 6 9 9 9
29 28 27 27 26 22 17 22 23 20 19 17 16 20 22 21 18 17 16 16 16 15 16 12 9 6 5 2 10 13 14 9 7 9 14 14 14 13 10 10 8 7 6
29 29 26 24 24 22 18 22 23 19 16 20 21 15 16 18 16 16 14 15 16 14 13 10 9 7 6 5 8 7 9 9 9 13 15 13 11 11 11 8 6 6 6
30 29 25 23 24 22 23 24 21 19 19 19 17 14 11 14 16 15 14 15 13 8 8 7 9 6 7 8 8 10 13 13 14 16 14 13 12 12 11 10 9 7 7
30 30 24 22 24 23 23 20 21 16 16 16 14 13 11 10 11 12 13 18 15 5 9 13 12 9 7 10 8 7 11 20 16 14 15 14 14 13 12 11 10 10 10
Wind_Direction
138 135 137 145 149 155 158 166 166 141 156 179 219 224 247 252 255 245 219 231 242 275 294 298 295 284 281 281 278 269 261 256 252 255 267 265 263 260 254 252 253 248 240
150 145 153 157 163 162 162 156 156 151 178 202 233 280 276 272 287 275 243 246 277 290 288 293 289 288 285 274 264 263 266 264 262 260 265 269 267 259 252 238 243 250 253
156 151 169 171 175 178 174 162 169 177 198 212 209 221 232 236 241 244 246 256 289 284 288 288 287 286 279 275 271 266 262 265 266 260 255 263 259 261 255 239 233 236 235
144 172 192 192 197 198 190 181 188 200 209 219 242 261 286 298 307 293 290 301 286 287 290 287 290 285 276 276 273 261 265 267 266 259 251 249 264 272 272 245 226 218 225
163 195 223 225 244 244 223 209 207 216 222 224 240 246 265 285 281 276 275 271 268 275 286 298 299 290 284 288 286 276 265 259 259 264 264 259 248 247 252 259 249 228 220
57 244 277 305 315 305 284 264 249 246 242 238 236 239 255 267 269 261 269 292 301 292 279 293 299 298 295 288 278 274 269 266 268 269 270 265 260 251 243 248 250 254 248
25 26 13 1 355 345 330 311 292 279 267 253 248 244 245 245 246 246 263 287 297 307 315 308 300 301 299 296 287 278 276 272 266 264 262 260 259 263 255 250 252 253 251
42 46 38 24 28 19 9 359 344 322 302 277 256 245 241 239 239 237 254 266 286 295 305 297 296 294 294 296 293 285 276 272 269 267 264 261 258 254 253 248 242 241 238
32 34 30 27 26 23 19 15 7 3 359 344 304 269 256 253 245 238 232 241 252 267 272 287 294 296 298 299 297 293 287 280 272 271 274 264 252 245 247 250 239 225 226
23 21 20 18 13 8 7 10 9 5 5 5 356 343 314 276 255 245 243 246 246 251 268 281 290 294 295 299 305 284 277 276 278 281 279 274 262 249 241 230 224 218 222
7 3 5 4 359 356 355 356 355 352 351 352 347 345 335 318 290 266 257 252 249 247 252 264 279 288 293 301 299 291 290 292 306 306 295 289 285 266 256 250 238 222 214
353 347 343 339 339 341 339 340 340 342 342 335 330 332 327 317 310 301 286 269 255 250 249 253 264 278 287 293 291 295 294 290 314 339 4 356 318 297 294 268 246 228 207
339 337 335 333 334 335 326 317 318 328 334 323 314 318 325 318 315 315 310 293 271 257 251 249 255 267 276 281 282 287 275 275 293 303 330 340 324 44 55 40 46 121 131
326 324 321 312 304 299 295 282 274 276 279 291 301 298 300 310 308 301 304 299 282 263 252 247 250 252 257 268 269 281 280 266 281 314 336 328 343 38 86 81 70 80 101
284 281 281 280 281 282 276 263 241 234 228 224 239 264 274 276 281 293 303 298 294 277 257 245 238 234 238 243 247 259 262 254 260 27 13 10 24 65 94 107 101 93 97
283 283 279 282 283 279 280 283 269 262 249 240 238 230 235 257 270 273 278 284 290 293 273 246 231 222 224 155 186 252 237 230 145 99 96 116 109 104 99 98 99 115 132
302 307 311 310 310 308 298 298 293 288 286 281 283 282 269 274 274 278 291 293 296 300 293 261 231 218 210 166 179 228 220 210 160 113 70 103 115 133 127 113 96 77 55
309 310 308 306 306 304 300 295 291 289 287 287 289 294 290 286 282 280 280 283 289 292 287 271 239 222 207 176 181 203 224 215 214 153 127 113 129 133 137 134 119 100 73
311 308 306 305 305 302 299 297 293 288 280 277 284 289 286 283 279 273 273 279 288 288 276 260 259 231 208 178 179 196 221 214 204 181 148 143 134 90 139 143 124 107 87
308 307 306 303 300 299 298 295 292 291 287 286 287 284 277 276 275 271 271 271 274 280 282 266 251 253 224 186 183 197 218 199 197 181 149 76 115 124 305 150 136 123 119
308 306 303 301 302 304 302 296 292 289 289 287 287 289 280 274 265 259 261 264 269 273 281 280 255 219 293 229 192 198 220 196 200 184 173 143 121 118 106 162 141 125 125
307 307 307 303 304 304 300 295 291 287 289 289 290 290 280 273 265 258 260 260 263 266 269 272 258 213 190 318 253 201 221 232 205 187 163 137 130 115 104 115 112 129 148
304 306 307 309 309 301 295 292 288 287 281 275 282 284 278 268 265 262 261 257 251 252 263 267 257 222 166 337 288 214 206 214 204 151 120 126 127 117 109 120 139 162 165
304 304 307 303 300 296 290 283 285 285 277 277 281 277 272 275 265 259 255 254 255 245 253 265 245 199 154 190 248 207 197 166 127 120 126 132 128 114 120 142 162 171 165
306 308 308 300 297 296 292 293 290 282 274 272 276 268 250 262 271 261 258 262 257 250 263 249 234 184 174 211 220 196 180 168 153 145 145 150 147 148 158 166 166 153 155
309 308 307 300 297 296 292 290 290 282 271 269 268 267 261 244 249 269 265 244 244 212 228 231 211 183 172 131 143 196 166 147 157 159 157 157 156 158 163 161 157 156 157
Height
1505 1506 1508 1511 1512 1515 1517 1518 1519 1519 1520 1521 1522 1522 1522 1522 1521 1519 1518 1517 1516 1515 1513 1512 1510 1509 1507 1505 1504 1503 1502 1500 1499 1497 1494 1491 1490 1489 1488 1489 1493 1495 1497
1505 1507 1509 1512 1514 1515 1516 1516 1517 1518 1518 1520 1521 1521 1521 1520 1519 1518 1517 1515 1514 1512 1510 1508 1507 1504 1502 1500 1498 1497 1496 1495 1494 1493 1490 1486 1485 1481 1481 1482 1484 1486 1488
1505 1508 1510 1512 1513 1515 1515 1516 1516 1517 1518 1518 1519 1518 1517 1516 1516 1516 1515 1513 1510 1508 1506 1504 1501 1498 1495 1495 1493 1491 1490 1488 1487 1487 1486 1483 1477 1477 1477 1476 1477 1478 1480
1506 1508 1510 1510 1512 1513 1514 1514 1514 1515 1516 1516 1517 1516 1516 1514 1513 1513 1512 1510 1507 1504 1501 1499 1496 1493 1490 1489 1487 1484 1483 1482 1481 1480 1479 1478 1476 1476 1474 1473 1472 1472 1473
1505 1507 1508 1510 1511 1512 1513 1513 1512 1512 1513 1513 1513 1513 1513 1511 1510 1508 1506 1504 1503 1500 1497 1495 1492 1489 1486 1483 1480 1479 1477 1475 1474 1474 1473 1471 1469 1469 1469 1469 1469 1468 1468
1505 1507 1508 1510 1511 1510 1511 1511 1510 1509 1510 1510 1509 1509 1508 1507 1506 1505 1503 1502 1500 1498 1495 1491 1488 1485 1482 1479 1475 1474 1472 1470 1468 1466 1465 1465 1464 1462 1462 1462 1462 1463 1464
1508 1505 1505 1508 1510 1510 1509 1509 1508 1506 1506 1505 1505 1504 1504 1503 1502 1501 1501 1498 1496 1494 1491 1486 1483 1480 1478 1475 1472 1469 1466 1464 1461 1460 1459 1459 1459 1458 1457 1456 1456 1456 1458
1511 1511 1515 1514 1508 1507 1505 1504 1503 1502 1501 1500 1499 1499 1499 1499 1498 1497 1495 1493 1491 1488 1486 1482 1479 1477 1475 1473 1469 1465 1461 1459 1456 1454 1452 1451 1451 1451 1451 1451 1451 1450 1452
1513 1513 1513 1509 1507 1506 1505 1503 1503 1501 1499 1497 1496 1495 1495 1495 1494 1492 1489 1488 1486 1484 1481 1479 1476 1473 1471 1469 1464 1459 1456 1453 1450 1447 1445 1444 1443 1442 1442 1443 1444 1445 1446
1516 1514 1512 1509 1508 1509 1507 1506 1505 1503 1500 1496 1494 1493 1492 1491 1489 1487 1484 1483 1481 1478 1477 1475 1472 1470 1468 1465 1459 1454 1452 1448 1444 1440 1437 1437 1437 1437 1436 1436 1436 1437 1440
1519 1516 1513 1511 1510 1510 1507 1504 1502 1500 1498 1495 1493 1489 1488 1488 1485 1482 1479 1477 1475 1473 1471 1469 1467 1466 1464 1460 1455 1451 1447 1444 1439 1436 1433 1432 1432 1431 1431 1431 1431 1431 1434
1521 1518 1515 1512 1509 1506 1503 1501 1498 1496 1493 1493 1490 1485 1483 1484 1480 1475 1473 1472 1470 1469 1467 1463 1461 1459 1459 1456 1453 1449 1444 1441 1438 1436 1433 1431 1430 1428 1425 1424 1424 1425 1428
1519 1515 1512 1508 1505 1500 1497 1495 1491 1486 1483 1485 1486 1480 1475 1476 1474 1469 1466 1465 1465 1464 1463 1460 1456 1453 1453 1452 1450 1447 1443 1439 1437 1436 1435 1432 1431 1427 1423 1420 1419 1420 1423
1516 1512 1508 1503 1499 1495 1490 1488 1484 1480 1475 1473 1473 1471 1466 1465 1466 1465 1459 1457 1457 1457 1457 1456 1452 1449 1448 1447 1446 1444 1443 1439 1436 1434 1433 1433 1432 1429 1426 1422 1421 1421 1424
1508 1504 1500 1497 1493 1490 1487 1483 1477 1472 1467 1463 1462 1464 1461 1458 1462 1461 1454 1453 1449 1447 1449 1448 1447 1444 1443 1442 1442 1440 1441 1439 1436 1433 1432 1432 1433 1431 1429 1426 1426 1428 1433
1503 1499 1495 1491 1487 1483 1479 1476 1471 1467 1462 1455 1453 1455 1453 1451 1456 1458 1452 1448 1442 1436 1440 1440 1440 1439 1438 1437 1437 1437 1439 1438 1435 1433 1432 1432 1434 1434 1433 1431 1432 1435 1438
1496 1492 1488 1484 1481 1477 1473 1469 1465 1463 1459 1456 1452 1450 1447 1445 1447 1447 1444 1441 1438 1430 1433 1430 1432 1432 1433 1432 1433 1434 1437 1436 1435 1433 1432 1432 1434 1437 1436 1436 1436 1439 1443
1489 1485 1481 1477 1473 1469 1464 1459 1456 1453 1450 1447 1444 1440 1438 1438 1439 1438 1436 1435 1429 1426 1425 1425 1424 1425 1426 1426 1428 1430 1435 1436 1435 1434 1434 1434 1435 1439 1440 1439 1440 1442 1445
1484 1479 1474 1470 1465 1460 1455 1449 1445 1442 1439 1437 1435 1433 1431 1429 1428 1428 1428 1426 1422 1421 1419 1419 1419 1419 1417 1418 1421 1425 1431 1434 1435 1433 1434 1435 1436 1439 1442 1442 1442 1443 1446
1477 1472 1466 1461 1456 1450 1445 1438 1434 1431 1428 1426 1424 1423 1421 1420 1420 1420 1420 1419 1417 1415 1414 1411 1410 1413 1416 1413 1414 1418 1425 1429 1431 1432 1431 1434 1437 1438 1441 1444 1444 1444 1446
1468 1462 1456 1451 1446 1441 1435 1429 1425 1422 1418 1415 1412 1411 1409 1409 1409 1410 1410 1410 1409 1407 1406 1404 1404 1401 1407 1410 1411 1412 1418 1424 1427 1429 1431 1433 1436 1438 1440 1443 1446 1446 1447
1459 1452 1446 1441 1436 1431 1425 1418 1414 1410 1407 1404 1401 1400 1399 1399 1398 1399 1400 1400 1400 1399 1398 1397 1398 1395 1401 1403 1405 1410 1415 1419 1423 1426 1428 1430 1435 1437 1440 1443 1446 1448 1450
1449 1443 1435 1429 1424 1420 1414 1407 1401 1398 1394 1391 1390 1389 1387 1387 1388 1388 1390 1391 1391 1391 1390 1389 1391 1391 1390 1395 1397 1405 1411 1415 1420 1422 1423 1427 1433 1437 1440 1444 1446 1449 1452
1439 1431 1424 1416 1409 1405 1400 1395 1390 1385 1382 1379 1377 1376 1375 1376 1377 1378 1380 1382 1382 1381 1381 1380 1380 1382 1382 1392 1397 1400 1406 1412 1416 1418 1420 1426 1431 1436 1439 1443 1447 1450 1452
1428 1421 1414 1405 1398 1392 1387 1382 1377 1373 1370 1367 1365 1365 1365 1366 1367 1369 1372 1374 1376 1376 1376 1374 1372 1373 1377 1383 1392 1397 1403 1409 1412 1416 1421 1427 1431 1435 1440 1444 1447 1449 1452
1418 1410 1402 1395 1387 1380 1374 1369 1365 1361 1357 1355 1354 1354 1355 1356 1357 1360 1362 1365 1369 1370 1370 1369 1369 1371 1373 1376 1388 1395 1401 1405 1410 1417 1422 1427 1430 1434 1440 1444 1446 1449 1452